AFR221 GVAC-GOBD

Flight info

Callsign AFR221
Flight time 1h 4m
Altitude 29000
Route IRPOT1A POLMO DCT LUMPO DCT LIGOV LIGOV1A
Aircraft A321/M-SDE3FGHIRWY/LB1

Departure

Time 2026-04-25 15:49
Airport Amílcar Cabral International Airport (GVAC)

Arrival

Time 2026-04-25 16:53
Airport Blaise Diagne International Airport (GOBD)
Time Latitude Longitude Altitude Speed Heading
2026-04-25 15:35 16.73494 -22.94512 210 ft 0 kts 89°
2026-04-25 15:42 16.73494 -22.94528 209 ft 3 kts 89°
2026-04-25 15:42 16.73494 -22.94547 200 ft 3 kts 89°
2026-04-25 15:43 16.73493 -22.94567 200 ft 3 kts 105°
2026-04-25 15:43 16.73502 -22.94583 214 ft 3 kts 144°
2026-04-25 15:43 16.73517 -22.94593 206 ft 3 kts 176°
2026-04-25 15:43 16.73519 -22.94593 206 ft 0 kts 177°
2026-04-25 15:45 16.73499 -22.94593 214 ft 8 kts 180°
2026-04-25 15:45 16.73406 -22.94594 200 ft 17 kts 180°
2026-04-25 15:45 16.73286 -22.94593 209 ft 16 kts 179°
2026-04-25 15:45 16.73213 -22.94592 200 ft 16 kts 179°
2026-04-25 15:46 16.73080 -22.94613 210 ft 13 kts 220°
2026-04-25 15:46 16.73024 -22.94683 206 ft 12 kts 205°
2026-04-25 15:46 16.72930 -22.94690 192 ft 17 kts 180°
2026-04-25 15:46 16.72809 -22.94689 189 ft 17 kts 179°
2026-04-25 15:47 16.72695 -22.94687 186 ft 17 kts 179°
2026-04-25 15:47 16.72578 -22.94686 184 ft 18 kts 180°
2026-04-25 15:47 16.72421 -22.94703 183 ft 22 kts 219°
2026-04-25 15:47 16.72405 -22.94821 185 ft 17 kts 270°
2026-04-25 15:48 16.72541 -22.94890 186 ft 47 kts 358°
2026-04-25 15:48 16.73096 -22.94891 194 ft 109 kts 359°
2026-04-25 15:48 16.74022 -22.94902 201 ft 155 kts
2026-04-25 15:48 16.75119 -22.94922 701 ft 159 kts
2026-04-25 15:49 16.76259 -22.94932 1191 ft 170 kts
2026-04-25 15:49 16.77492 -22.94939 1664 ft 185 kts
2026-04-25 15:49 16.78832 -22.94944 2093 ft 199 kts
2026-04-25 15:49 16.80280 -22.94948 2333 ft 223 kts
2026-04-25 15:50 16.81370 -22.94955 2556 ft 238 kts
2026-04-25 15:50 16.83620 -22.94969 3439 ft 248 kts 360°
2026-04-25 15:50 16.85331 -22.94649 4104 ft 257 kts 23°
2026-04-25 15:50 16.86692 -22.93388 4601 ft 273 kts 57°
2026-04-25 15:51 16.87226 -22.91445 5034 ft 288 kts 84°
2026-04-25 15:51 16.87296 -22.90053 5372 ft 292 kts 86°
2026-04-25 15:51 16.87301 -22.87210 6069 ft 298 kts 90°
2026-04-25 15:51 16.87264 -22.85031 6628 ft 302 kts 90°
2026-04-25 15:52 16.87228 -22.82833 7162 ft 305 kts 90°
2026-04-25 15:52 16.87206 -22.80608 7725 ft 307 kts 90°
2026-04-25 15:52 16.87196 -22.78369 8298 ft 309 kts 91°
2026-04-25 15:52 16.86885 -22.76136 8814 ft 312 kts 109°
2026-04-25 15:53 16.85994 -22.74076 9352 ft 311 kts 126°
2026-04-25 15:53 16.84753 -22.72227 9934 ft 312 kts 129°
2026-04-25 15:53 16.83493 -22.70374 10204 ft 325 kts 128°
2026-04-25 15:53 16.82149 -22.68393 10323 ft 343 kts 128°
2026-04-25 15:54 16.80741 -22.66313 10454 ft 358 kts 128°
2026-04-25 15:54 16.79286 -22.64157 10805 ft 365 kts 127°
2026-04-25 15:54 16.77813 -22.61972 11283 ft 369 kts 127°
2026-04-25 15:54 16.76332 -22.59779 11788 ft 371 kts 127°
2026-04-25 15:55 16.74837 -22.57565 12261 ft 375 kts 127°
2026-04-25 15:55 16.73329 -22.55331 12750 ft 378 kts 127°
2026-04-25 15:55 16.71810 -22.53081 13248 ft 381 kts 126°
2026-04-25 15:55 16.70277 -22.50815 13723 ft 384 kts 126°
2026-04-25 15:56 16.68730 -22.48530 14182 ft 386 kts 126°
2026-04-25 15:56 16.67197 -22.46266 14599 ft 389 kts 127°
2026-04-25 15:56 16.65632 -22.43954 15015 ft 391 kts 127°
2026-04-25 15:56 16.64057 -22.41633 15452 ft 393 kts 127°
2026-04-25 15:57 16.62470 -22.39295 15862 ft 396 kts 127°
2026-04-25 15:57 16.60871 -22.36939 16271 ft 398 kts 127°
2026-04-25 15:57 16.59270 -22.34579 16679 ft 400 kts 127°
2026-04-25 15:57 16.57659 -22.32202 17087 ft 402 kts 127°
2026-04-25 15:58 16.56046 -22.29821 17482 ft 404 kts 127°
2026-04-25 15:58 16.54606 -22.27287 17853 ft 409 kts 117°
2026-04-25 15:58 16.53440 -22.24570 18216 ft 411 kts 116°
2026-04-25 15:58 16.52274 -22.21839 18531 ft 413 kts 116°
2026-04-25 15:59 16.51112 -22.19125 18830 ft 416 kts 115°
2026-04-25 15:59 16.49929 -22.16366 19118 ft 418 kts 115°
2026-04-25 15:59 16.48740 -22.13596 19411 ft 420 kts 115°
2026-04-25 15:59 16.47545 -22.10815 19691 ft 422 kts 115°
2026-04-25 16:00 16.46342 -22.08016 19960 ft 424 kts 115°
2026-04-25 16:00 16.43916 -22.02388 20474 ft 428 kts 115°
2026-04-25 16:00 16.42694 -21.99549 20723 ft 430 kts 115°
2026-04-25 16:01 16.41467 -21.96704 20977 ft 432 kts 115°
2026-04-25 16:01 16.40234 -21.93842 21230 ft 434 kts 114°
2026-04-25 16:01 16.38996 -21.90972 21472 ft 435 kts 114°
2026-04-25 16:01 16.37754 -21.88089 21706 ft 438 kts 114°
2026-04-25 16:02 16.36520 -21.85223 21940 ft 439 kts 114°
2026-04-25 16:02 16.35263 -21.82314 22184 ft 441 kts 114°
2026-04-25 16:02 16.34001 -21.79393 22428 ft 443 kts 114°
2026-04-25 16:02 16.32735 -21.76461 22663 ft 445 kts 114°
2026-04-25 16:03 16.31463 -21.73519 22906 ft 447 kts 114°
2026-04-25 16:03 16.30185 -21.70557 23146 ft 449 kts 114°
2026-04-25 16:03 16.28903 -21.67591 23378 ft 451 kts 114°
2026-04-25 16:03 16.27609 -21.64602 23600 ft 453 kts 113°
2026-04-25 16:04 16.26376 -21.61575 23797 ft 455 kts 111°
2026-04-25 16:04 16.25239 -21.58500 23998 ft 456 kts 109°
2026-04-25 16:04 16.24161 -21.55387 24201 ft 458 kts 108°
2026-04-25 16:04 16.23104 -21.52258 24431 ft 459 kts 108°
2026-04-25 16:05 16.22400 -21.50179 24570 ft 460 kts 108°
2026-04-25 16:05 16.20946 -21.45976 24850 ft 463 kts 109°
2026-04-25 16:05 16.18706 -21.39724 25259 ft 466 kts 109°
2026-04-25 16:06 16.17557 -21.36558 25460 ft 468 kts 109°
2026-04-25 16:06 16.16408 -21.33387 25660 ft 470 kts 109°
2026-04-25 16:06 16.15258 -21.30195 25854 ft 472 kts 109°
2026-04-25 16:06 16.14106 -21.26990 26052 ft 474 kts 109°
2026-04-25 16:07 16.12952 -21.23777 26245 ft 476 kts 109°
2026-04-25 16:07 16.12562 -21.22688 26309 ft 476 kts 109°
2026-04-25 16:07 16.10630 -21.17307 26624 ft 479 kts 109°
2026-04-25 16:07 16.09462 -21.14055 26820 ft 481 kts 109°
2026-04-25 16:08 16.08286 -21.10789 27017 ft 483 kts 109°
2026-04-25 16:08 16.07107 -21.07517 27206 ft 484 kts 109°
2026-04-25 16:08 16.05921 -21.04229 27402 ft 486 kts 109°
2026-04-25 16:08 16.04730 -21.00928 27592 ft 488 kts 109°
2026-04-25 16:09 16.03536 -20.97620 27779 ft 490 kts 109°
2026-04-25 16:09 16.02338 -20.94300 27966 ft 492 kts 109°
2026-04-25 16:09 16.01135 -20.90969 28218 ft 492 kts 109°
2026-04-25 16:09 15.99947 -20.87684 28490 ft 491 kts 109°
2026-04-25 16:10 15.98746 -20.84362 28731 ft 491 kts 109°
2026-04-25 16:10 15.97545 -20.81042 28906 ft 493 kts 109°
2026-04-25 16:10 15.96334 -20.77688 28928 ft 499 kts 109°
2026-04-25 16:11 15.93863 -20.70868 28923 ft 509 kts 109°
2026-04-25 16:11 15.91343 -20.63933 28922 ft 517 kts 109°
2026-04-25 16:12 15.88781 -20.56908 28918 ft 522 kts 109°
2026-04-25 16:12 15.86210 -20.49862 28919 ft 526 kts 109°
2026-04-25 16:13 15.83616 -20.42735 28913 ft 529 kts 109°
2026-04-25 16:13 15.81006 -20.35562 28915 ft 532 kts 109°
2026-04-25 16:14 15.78388 -20.28382 28912 ft 532 kts 109°
2026-04-25 16:14 15.75772 -20.21204 28911 ft 532 kts 109°
2026-04-25 16:15 15.73155 -20.14024 28910 ft 532 kts 109°
2026-04-25 16:15 15.70525 -20.06852 28907 ft 530 kts 109°
2026-04-25 16:16 15.67901 -19.99738 28906 ft 530 kts 109°
2026-04-25 16:16 15.65310 -19.92585 28904 ft 529 kts 109°
2026-04-25 16:17 15.62773 -19.85412 28904 ft 529 kts 108°
2026-04-25 16:17 15.60230 -19.78245 28908 ft 529 kts 109°
2026-04-25 16:18 15.57680 -19.71094 28904 ft 529 kts 109°
2026-04-25 16:18 15.55117 -19.63943 28900 ft 529 kts 109°
2026-04-25 16:19 15.52545 -19.56802 28899 ft 529 kts 109°
2026-04-25 16:19 15.49980 -19.49652 28900 ft 529 kts 109°
2026-04-25 16:20 15.46569 -19.40136 28896 ft 529 kts 109°
2026-04-25 16:21 15.42421 -19.28254 28895 ft 527 kts 108°
2026-04-25 16:21 15.40368 -19.22294 28503 ft 522 kts 108°
2026-04-25 16:21 15.38750 -19.17611 27958 ft 520 kts 108°
2026-04-25 16:22 15.37926 -19.15230 27685 ft 520 kts 108°
2026-04-25 16:22 15.36705 -19.11710 27289 ft 516 kts 108°
2026-04-25 16:22 15.35520 -19.08303 26897 ft 503 kts 108°
2026-04-25 16:22 15.34348 -19.04936 26519 ft 491 kts 108°
2026-04-25 16:23 15.33198 -19.01642 26143 ft 481 kts 108°
2026-04-25 16:23 15.32072 -18.98418 25766 ft 471 kts 108°
2026-04-25 16:23 15.30969 -18.95264 25395 ft 461 kts 109°
2026-04-25 16:23 15.29887 -18.92173 25028 ft 452 kts 109°
2026-04-25 16:24 15.28828 -18.89146 24679 ft 443 kts 109°
2026-04-25 16:24 15.27792 -18.86177 24310 ft 433 kts 108°
2026-04-25 16:24 15.26778 -18.83270 23966 ft 424 kts 109°
2026-04-25 16:24 15.25790 -18.80433 23616 ft 411 kts 108°
2026-04-25 16:25 15.24843 -18.77717 23254 ft 392 kts 109°
2026-04-25 16:25 15.24234 -18.75977 22975 ft 384 kts 109°
2026-04-25 16:25 15.23039 -18.72572 22427 ft 370 kts 109°
2026-04-25 16:25 15.22171 -18.70093 22020 ft 363 kts 109°
2026-04-25 16:26 15.21319 -18.67660 21647 ft 356 kts 109°
2026-04-25 16:26 15.20486 -18.65285 21214 ft 348 kts 109°
2026-04-25 16:26 15.19665 -18.62945 20754 ft 343 kts 110°
2026-04-25 16:26 15.18855 -18.60640 20380 ft 339 kts 110°
2026-04-25 16:27 15.18055 -18.58358 20026 ft 336 kts 110°
2026-04-25 16:27 15.17261 -18.56094 19679 ft 334 kts 110°
2026-04-25 16:27 15.16467 -18.53838 19334 ft 332 kts 110°
2026-04-25 16:27 15.15677 -18.51598 18994 ft 331 kts 111°
2026-04-25 16:28 15.14902 -18.49398 18662 ft 329 kts 111°
2026-04-25 16:28 15.14121 -18.47174 18327 ft 327 kts 111°
2026-04-25 16:28 15.13349 -18.44967 18018 ft 326 kts 111°
2026-04-25 16:28 15.12577 -18.42765 17744 ft 325 kts 111°
2026-04-25 16:29 15.11809 -18.40573 17464 ft 324 kts 111°
2026-04-25 16:29 15.11044 -18.38386 17184 ft 322 kts 111°
2026-04-25 16:29 15.10282 -18.36218 16910 ft 320 kts 112°
2026-04-25 16:29 15.09520 -18.34060 16635 ft 318 kts 112°
2026-04-25 16:30 15.09017 -18.32639 16464 ft 317 kts 112°
2026-04-25 16:30 15.08009 -18.29786 16097 ft 314 kts 112°
2026-04-25 16:30 15.07262 -18.27667 15829 ft 313 kts 112°
2026-04-25 16:30 15.06519 -18.25560 15565 ft 311 kts 112°
2026-04-25 16:31 15.05778 -18.23465 15304 ft 309 kts 112°
2026-04-25 16:31 15.05041 -18.21381 15051 ft 308 kts 112°
2026-04-25 16:31 15.04309 -18.19309 14783 ft 306 kts 112°
2026-04-25 16:31 15.03590 -18.17272 14526 ft 306 kts 112°
2026-04-25 16:32 15.02861 -18.15207 14275 ft 305 kts 112°
2026-04-25 16:32 15.02130 -18.13144 14032 ft 304 kts 113°
2026-04-25 16:32 15.01405 -18.11099 13787 ft 302 kts 113°
2026-04-25 16:32 15.00684 -18.09059 13540 ft 301 kts 113°
2026-04-25 16:33 14.99968 -18.07031 13282 ft 299 kts 113°
2026-04-25 16:33 14.99257 -18.05015 13032 ft 297 kts 112°
2026-04-25 16:33 14.98549 -18.03011 12785 ft 296 kts 113°
2026-04-25 16:33 14.97827 -18.00979 12532 ft 304 kts 112°
2026-04-25 16:34 14.97097 -17.98919 12285 ft 305 kts 112°
2026-04-25 16:34 14.96364 -17.96851 12042 ft 308 kts 112°
2026-04-25 16:34 14.95617 -17.94750 11799 ft 313 kts 112°
2026-04-25 16:34 14.94866 -17.92634 11557 ft 313 kts 112°
2026-04-25 16:35 14.94118 -17.90521 11317 ft 313 kts 113°
2026-04-25 16:35 14.93372 -17.88410 11078 ft 313 kts 113°
2026-04-25 16:35 14.92635 -17.86326 10834 ft 311 kts 112°
2026-04-25 16:35 14.91896 -17.84231 10605 ft 308 kts 111°
2026-04-25 16:36 14.91167 -17.82157 10368 ft 306 kts 113°
2026-04-25 16:36 14.90922 -17.81459 10292 ft 306 kts 113°
2026-04-25 16:36 14.89718 -17.78032 9898 ft 305 kts 113°
2026-04-25 16:36 14.88991 -17.75984 9659 ft 302 kts 111°
2026-04-25 16:37 14.88261 -17.73946 9407 ft 301 kts 112°
2026-04-25 16:37 14.87544 -17.71951 9155 ft 300 kts 112°
2026-04-25 16:37 14.86818 -17.69921 8905 ft 300 kts 112°
2026-04-25 16:37 14.86097 -17.67896 8657 ft 301 kts 111°
2026-04-25 16:38 14.85377 -17.65869 8402 ft 299 kts 110°
2026-04-25 16:38 14.84659 -17.63849 8155 ft 298 kts 110°
2026-04-25 16:38 14.83946 -17.61841 7920 ft 298 kts 110°
2026-04-25 16:38 14.83229 -17.59827 7671 ft 298 kts 111°
2026-04-25 16:39 14.82510 -17.57810 7437 ft 300 kts 110°
2026-04-25 16:39 14.81798 -17.55795 7208 ft 297 kts 110°
2026-04-25 16:39 14.81083 -17.53791 6979 ft 297 kts 110°
2026-04-25 16:39 14.80371 -17.51795 6747 ft 295 kts 109°
2026-04-25 16:40 14.79660 -17.49800 6518 ft 296 kts 109°
2026-04-25 16:40 14.78944 -17.47803 6289 ft 298 kts 109°
2026-04-25 16:40 14.78224 -17.45807 6039 ft 294 kts 109°
2026-04-25 16:40 14.77376 -17.43889 5793 ft 293 kts 124°
2026-04-25 16:41 14.75979 -17.42409 5579 ft 293 kts 145°
2026-04-25 16:41 14.74832 -17.41618 5421 ft 294 kts 147°
2026-04-25 16:41 14.70840 -17.38996 4854 ft 291 kts 148°
2026-04-25 16:42 14.69122 -17.37888 4623 ft 291 kts 147°
2026-04-25 16:42 14.67410 -17.36779 4376 ft 290 kts 147°
2026-04-25 16:42 14.65708 -17.35670 4143 ft 289 kts 147°
2026-04-25 16:42 14.64017 -17.34566 4016 ft 286 kts 147°
2026-04-25 16:43 14.62336 -17.33464 4023 ft 286 kts 147°
2026-04-25 16:43 14.60660 -17.32359 4023 ft 286 kts 146°
2026-04-25 16:43 14.58981 -17.31258 4018 ft 286 kts 147°
2026-04-25 16:43 14.57299 -17.30163 4016 ft 286 kts 147°
2026-04-25 16:44 14.55617 -17.29070 4000 ft 286 kts 147°
2026-04-25 16:44 14.53931 -17.27970 4001 ft 288 kts 146°
2026-04-25 16:44 14.52232 -17.26860 4001 ft 290 kts 146°
2026-04-25 16:44 14.50526 -17.25745 4001 ft 291 kts 146°
2026-04-25 16:45 14.48817 -17.24629 4000 ft 291 kts 146°
2026-04-25 16:45 14.47132 -17.23529 4002 ft 289 kts 146°
2026-04-25 16:45 14.45442 -17.22421 3996 ft 287 kts 146°
2026-04-25 16:45 14.43750 -17.21313 3999 ft 287 kts 146°
2026-04-25 16:46 14.42098 -17.20156 4000 ft 286 kts 139°
2026-04-25 16:46 14.40678 -17.18710 3992 ft 287 kts 127°
2026-04-25 16:46 14.39578 -17.17019 3990 ft 283 kts 115°
2026-04-25 16:46 14.39283 -17.16405 3990 ft 282 kts 111°
2026-04-25 16:47 14.38338 -17.13211 3990 ft 280 kts 98°
2026-04-25 16:47 14.37992 -17.11232 3997 ft 280 kts 95°
2026-04-25 16:47 14.37965 -17.09251 3989 ft 274 kts 72°
2026-04-25 16:47 14.38901 -17.07613 3992 ft 265 kts 38°
2026-04-25 16:48 14.40543 -17.06872 3992 ft 260 kts
2026-04-25 16:48 14.42328 -17.06982 3991 ft 250 kts 354°
2026-04-25 16:48 14.44008 -17.07070 3990 ft 233 kts 358°
2026-04-25 16:48 14.45565 -17.07086 3937 ft 215 kts 359°
2026-04-25 16:49 14.47018 -17.07096 3698 ft 202 kts 359°
2026-04-25 16:49 14.48392 -17.07107 3460 ft 194 kts 359°
2026-04-25 16:49 14.49720 -17.07120 3228 ft 187 kts 359°
2026-04-25 16:49 14.51000 -17.07131 2992 ft 183 kts 360°
2026-04-25 16:50 14.52262 -17.07144 2772 ft 180 kts 360°
2026-04-25 16:50 14.53508 -17.07155 2541 ft 177 kts 360°
2026-04-25 16:50 14.54722 -17.07166 2322 ft 179 kts
2026-04-25 16:50 14.55958 -17.07179 2097 ft 178 kts
2026-04-25 16:51 14.57187 -17.07193 1865 ft 174 kts
2026-04-25 16:51 14.58398 -17.07205 1648 ft 174 kts
2026-04-25 16:51 14.59608 -17.07215 1425 ft 168 kts
2026-04-25 16:51 14.59996 -17.07218 1348 ft 162 kts
2026-04-25 16:52 14.61700 -17.07234 1032 ft 137 kts
2026-04-25 16:52 14.62628 -17.07242 873 ft 132 kts 358°
2026-04-25 16:52 14.63540 -17.07251 713 ft 130 kts
2026-04-25 16:52 14.64441 -17.07262 561 ft 129 kts
2026-04-25 16:53 14.66198 -17.07276 288 ft 113 kts 360°
2026-04-25 16:53 14.66776 -17.07280 301 ft 56 kts 359°
2026-04-25 16:53 14.67005 -17.07279 301 ft 23 kts
2026-04-25 16:54 14.67077 -17.07183 299 ft 12 kts 87°
2026-04-25 16:54 14.67077 -17.07177 298 ft 0 kts 87°
2026-04-25 16:54 14.67077 -17.07165 299 ft 3 kts 87°
2026-04-25 16:54 14.67078 -17.07137 298 ft 7 kts 89°
2026-04-25 16:55 14.67079 -17.07032 297 ft 22 kts 90°
2026-04-25 16:55 14.67079 -17.06878 296 ft 20 kts 89°